TimeIST,TemperatureF,Dew PointF,Humidity,Sea Level PressureIn,VisibilityMPH,Wind Direction,Wind SpeedMPH,Gust SpeedMPH,PrecipitationIn,Events,Conditions,WindDirDegrees,DateUTC
12:30 AM,77.0,69.8,78,29.83,1.9,Calm,Calm,-,N/A,,Mist,0,2012-09-29 19:00:00
2:30 AM,77,69,71,29.81,1,Calm,Calm,,,,Mist,,2012-09-29 21:00:00
5:30 AM,75,70,79,29.81,1,Calm,Calm,,,,Mist,,2012-09-30 00:00:00
5:30 AM,75.2,69.8,83,29.83,1.2,Calm,Calm,-,N/A,,Mist,0,2012-09-30 00:00:00
6:00 AM,75.2,69.8,83,29.83,1.2,Calm,Calm,-,N/A,,Mist,0,2012-09-30 00:30:00
6:30 AM,75.2,69.8,83,29.83,1.2,Calm,Calm,-,N/A,,Mist,0,2012-09-30 01:00:00
7:00 AM,75.2,69.8,83,29.86,1.2,Calm,Calm,-,N/A,,Mist,0,2012-09-30 01:30:00
7:30 AM,75.2,69.8,83,29.86,1.2,Calm,Calm,-,N/A,,Partly Cloudy,0,2012-09-30 02:00:00
8:30 AM,77.0,71.6,83,29.89,1.6,Calm,Calm,-,N/A,,Partly Cloudy,0,2012-09-30 03:00:00
9:00 AM,78.8,71.6,78,29.89,1.9,Calm,Calm,-,N/A,,Mist,0,2012-09-30 03:30:00
12:30 PM,91.4,69.8,49,29.89,3.7,West,5.8,-,N/A,,Unknown,280,2012-09-30 07:00:00
1:00 PM,91.4,69.8,49,29.89,3.7,WNW,6.9,-,N/A,,Unknown,300,2012-09-30 07:30:00
2:00 PM,91.4,69.8,49,29.86,3.7,West,4.6,-,N/A,,Unknown,270,2012-09-30 08:30:00
2:30 PM,92,70,39,29.79,2,WNW,5.8,,,,,290,2012-09-30 09:00:00
5:30 PM,89,70,45,29.75,2,West,4.6,,,,,270,2012-09-30 12:00:00
5:30 PM,87.8,69.8,55,29.80,3.7,West,4.6,-,N/A,,Unknown,270,2012-09-30 12:00:00
7:30 PM,86.0,71.6,62,29.80,2.5,Variable,2.3,-,N/A,,Haze,0,2012-09-30 14:00:00
9:00 PM,82.4,75.2,79,29.80,2.5,Calm,Calm,-,N/A,,Haze,0,2012-09-30 15:30:00
9:30 PM,82.4,69.8,66,29.80,2.5,Calm,Calm,-,N/A,,Haze,0,2012-09-30 16:00:00
10:00 PM,80.6,69.8,70,29.80,2.5,Calm,Calm,-,N/A,,Haze,0,2012-09-30 16:30:00
10:30 PM,80.6,71.6,74,29.80,2.5,Calm,Calm,-,N/A,,Haze,0,2012-09-30 17:00:00